Location: Bidart
(43.4376°N, 1.5913°W)
Time: 12:05:41
(UTC+00:00)

USA 229 DEB - Pass Details

Date: 23 April 2026
Orbit: 844 x 1364 km, 63.4° (Epoch: 10 January)

Event Time Altitude Azimuth Distance (km) Brightness Sun altitude
Rises 00:59:38 0° 319° (NW) 4,054 7.1 -32.7°
Reaches altitude 10° 01:02:20 10° 314° (NW) 3,157 6.4 -32.6°
Enters shadow 01:07:55 43° 278° (W) 1,725 4.6 -32.2°
